Flag for United Kingdom Weather past 2 weeks in Milton Keynes, England, United Kingdom

Now
48 °F

Passing clouds.


Feels Like: 42 °F
Forecast: 44 / 58 °F
Wind: 15 mph from Southwest

Location: Luton Airport

Current Time: May 7, 2015 at 12:37:52 AM

Latest Report: May 7, 2015 at 12:20 AM


Visibility: N/A

Pressure: 29.83 "Hg

Humidity: 94%

Dew point: 46 °F

Location of Milton KeynesLocation

Historic Weather in Milton Keynes — Graph

°F

Milton Keynes temperature yesterday

Maximum temperature yesterday: 55 °F (at 11:50 AM)
Minimum temperature yesterday: 46 °F (at 5:20 AM)
Average temperature yesterday: 51 °F

Past Weeks' High & Low Weather Summary

 TemperatureHumidityPressure
High64 °F (May 3, 1:50 PM)100% (Apr 22, 5:20 AM)30.54 "Hg (Apr 22, 5:20 AM)
Low36 °F (Apr 27, 4:20 AM)38% (Apr 28, 4:20 PM)29.15 "Hg (May 5, 4:20 AM)
Average49 °F77%29.80 "Hg
* Reported Apr 21 11:20 PM — May 6 11:20 PM, Milton Keynes, Weather by CustomWeather, © 2015

Note: Actual official high and low records may vary slightly from our data, if they occured in-between our weather recording intervals... More about our weather records

Advertising

Milton Keynes weather history for previous 24 hours

 ConditionsComfort  
Time TempWeatherWind HumidityBarometerVisibility
11:20 PM
Wed, May 6
48 °FPassing clouds.15 mph87%29.83 "HgN/A
10:50 PM48 °FPassing clouds.17 mph87%29.80 "HgN/A
10:20 PM48 °FLight rain. Clear.17 mph87%29.80 "HgN/A
9:50 PM50 °FPassing clouds.21 mph82%29.77 "HgN/A
9:20 PM52 °FBroken clouds.21 mph77%29.77 "HgN/A
8:50 PM52 °FCloudy.18 mph77%29.74 "HgN/A
8:20 PM52 °FPartly sunny.17 mph77%29.74 "HgN/A
7:50 PM52 °FBroken clouds.21 mph77%29.71 "HgN/A
7:20 PM54 °FBroken clouds.28 mph67%29.68 "HgN/A
6:50 PM54 °FScattered clouds.28 mph67%29.68 "HgN/A
6:20 PM55 °FScattered clouds.26 mph67%29.65 "HgN/A
5:50 PM54 °FBroken clouds.29 mph72%29.65 "HgN/A
5:20 PM54 °FPartly sunny.25 mph72%29.62 "HgN/A
4:50 PM54 °FBroken clouds.28 mph72%29.62 "HgN/A
4:20 PM54 °FLight rain. Broken clouds.30 mph72%29.59 "HgN/A
3:50 PM55 °FPartly sunny.25 mph67%29.59 "HgN/A
3:20 PM55 °FPartly sunny.25 mph67%29.56 "HgN/A
2:50 PM54 °FScattered clouds.28 mph72%29.56 "HgN/A
2:20 PM54 °FBroken clouds.20 mph77%29.56 "HgN/A
1:50 PM54 °FPartly sunny.21 mph77%29.56 "HgN/A
1:20 PM52 °FBroken clouds.18 mph88%29.56 "HgN/A
12:50 PM55 °FBroken clouds.20 mph72%29.53 "HgN/A
12:20 PM54 °FSprinkles. Partly sunny.21 mph72%29.53 "HgN/A
11:50 AM55 °FPartly sunny.20 mph67%29.53 "HgN/A
11:20 AM54 °FPartly sunny.21 mph77%29.53 "HgN/A
10:50 AM52 °FScattered clouds.15 mph88%29.53 "HgN/A
10:20 AM52 °FRain. Mostly cloudy.22 mph72%29.53 "HgN/A
9:50 AM50 °FPartly sunny.22 mph76%29.53 "HgN/A
9:20 AM50 °FDrizzle. Partly sunny.16 mph82%29.53 "HgN/A
8:50 AM50 °FPartly sunny.20 mph82%29.53 "HgN/A
8:20 AM50 °FPartly sunny.16 mph82%29.53 "HgN/A
7:50 AM48 °FScattered clouds.18 mph87%29.53 "HgN/A
7:20 AM48 °FScattered clouds.18 mph87%29.53 "HgN/A
6:50 AM48 °FPassing clouds.15 mph87%29.53 "HgN/A
6:20 AM46 °FScattered clouds.14 mph93%29.53 "HgN/A
5:50 AM46 °FPassing clouds.12 mph93%29.50 "HgN/A
5:20 AM46 °FLight rain. Passing clouds.15 mph93%29.53 "HgN/A
4:50 AM48 °FPassing clouds.16 mph87%29.53 "HgN/A
4:20 AM48 °FSprinkles. Partly cloudy.15 mph87%29.53 "HgN/A
3:50 AM48 °FSprinkles. Passing clouds.16 mph87%29.53 "HgN/A
3:20 AM48 °FPassing clouds.14 mph87%29.53 "HgN/A
2:50 AM48 °FPassing clouds.15 mph87%29.53 "HgN/A
2:20 AM50 °FPassing clouds.16 mph82%29.53 "HgN/A
1:50 AM50 °FPassing clouds.16 mph82%29.53 "HgN/A
1:20 AM50 °FPassing clouds.18 mph82%29.53 "HgN/A
12:50 AM50 °FLight rain. Passing clouds.17 mph82%29.53 "Hg4 mi
12:20 AM50 °FPassing clouds.18 mph82%29.53 "HgN/A
Weather by CustomWeather, © 2015

See weather overviewHow to use our weather pages